Location: Observatoire du C�gep de Trois-Rivi�res � Champlain
(46.4753°N, 72.3231°W)
Time: 19:30:43
(UTC-05:00)

N. Korean satellite - Visible Passes

Search period start: 13 December 2017 00:00
Search period end: 23 December 2017 00:00
Orbit: 461 x 513 km, 97.2° (Epoch: 13 December)

Date Brightness Start Highest point End Pass type
(mag) Time Alt. Az. Time Alt. Az. Time Alt. Az.
13 Dec 8.5 06:09:50 10° NNE 06:13:16 34° E 06:16:40 10° SSE visible
13 Dec 7.9 16:49:00 10° ESE 16:51:54 22° ENE 16:54:51 10° NNE visible
13 Dec 8.6 18:21:57 10° SSW 18:25:16 30° W 18:28:38 10° NNW visible
14 Dec 9.6 05:46:51 10° NE 05:49:34 19° E 05:52:15 10° SE visible
14 Dec 7.3 17:57:57 10° S 18:01:37 58° W 18:05:21 10° NNW visible
15 Dec 10.3 05:25:05 10° ENE 05:25:45 10° E 05:26:27 10° E visible
15 Dec 6.5 17:34:21 10° SSE 17:38:03 73° ENE 17:41:49 10° N visible
16 Dec 7.1 06:32:26 10° NNE 06:36:09 66° E 06:39:46 10° S visible
16 Dec 7.1 17:11:06 10° SE 17:14:34 38° ENE 17:18:05 10° N visible
16 Dec 9.6 18:45:42 10° SW 18:48:14 17° W 18:50:48 10° NW visible
17 Dec 8.5 06:09:06 10° NNE 06:12:31 34° E 06:15:51 10° SSE visible
17 Dec 7.9 16:48:15 10° ESE 16:51:09 22° ENE 16:54:05 10° NNE visible
17 Dec 8.6 18:21:10 10° SSW 18:24:30 31° W 18:27:53 10° NNW visible
18 Dec 9.6 05:46:07 10° NE 05:48:47 19° E 05:51:24 10° SE visible
18 Dec 7.2 17:57:09 10° S 18:00:51 59° W 18:04:35 10° NNW visible
19 Dec 10.3 05:24:42 10° E 05:24:58 10° E 05:25:14 10° E visible
19 Dec 6.5 17:33:33 10° SSE 17:37:16 72° ENE 17:41:03 10° N visible
20 Dec 7.1 06:31:40 10° NNE 06:35:21 65° E 06:38:56 10° S visible
20 Dec 7.2 17:10:18 10° SE 17:13:47 37° ENE 17:17:16 10° N visible
20 Dec 9.6 18:44:51 10° SW 18:47:26 18° W 18:50:02 10° NW visible
21 Dec 8.5 06:08:20 10° NNE 06:11:41 33° E 06:14:58 10° SSE visible
21 Dec 7.9 16:47:27 10° ESE 16:50:21 22° ENE 16:53:16 10° NNE visible
21 Dec 8.6 18:20:19 10° SSW 18:23:42 31° W 18:27:05 10° NNW visible
22 Dec 9.6 05:45:21 10° NE 05:47:57 18° E 05:50:29 10° SE visible
22 Dec 7.2 17:56:19 10° S 18:00:02 60° W 18:03:46 10° NNW visible
